[[{"header":{"parameterUnit":"m.s-1","parameterCategory":1,"la1":30.2991,"la2":30.254,"lo1":-89.0895,"lo2":-89.0444,"dy":0.0017,"dx":0.0017,"nx":28,"ny":28,"refTime":"2023-10-08T21:00:00:Z","depth":0,"parameterNumber":2,"parameterNumberName":"U-component_of_WINDS"},"data":[0,0,0,0,0,0,0,0,0,0,0,0,0,0,0,0,0,0,0,0,0,0,0,0,0,0,0,0,0,0,0,0,0,0,0,0,0,0,0,0,0,0,0,0,0,0,0,0,0,0,0,0,0,0,0,0,0,0,0.3489,0.349,0,0.3558,0.3559,0.356,0.3598,0.3598,0.3598,0.3598,0.367,0.3672,0.3673,0,0,0,0,0,0,0,0,0,0,0,0,0,0.339,0.3392,0.3489,0.349,0.3491,0.3558,0.3559,0.356,0.3598,0.3598,0.3598,0.3598,0.3669,0.3671,0.3673,0,0,0,0,0,0,0,0,0,0,0,0,0,0.3444,0.3392,0.3489,0.3518,0.3521,0.3558,0.3559,0.356,0.3597,0.3598,0.3598,0.3598,0.3668,0.3671,0.3674,0.3688,0,0,0.3682,0.3683,0,0,0,0,0,0,0,0,0.344,0.3447,0.3513,0.3516,0.3519,0.3569,0.3551,0.3603,0.3597,0.3568,0.3598,0.3598,0.3636,0.3642,0.3654,0.3691,0.3694,0.3682,0.3684,0.3685,0.3686,0,0,0,0,0,0,0,0.3437,0.3444,0.3517,0.3513,0.3518,0.3527,0.3535,0.3561,0.3601,0.3571,0.3574,0.3581,0.3638,0.3652,0.3656,0.3696,0.3682,0.3685,0.3686,0.3688,0.3747,0.3747,0,0,0,0,0,0,0.3428,0.3441,0.3514,0.3519,0.3479,0.3529,0.3538,0.3553,0.3601,0.3608,0.3581,0.3583,0.3647,0.3653,0.3659,0.3678,0.3685,0.3688,0.3689,0.3747,0.3747,0.3747,0,0,0,0,0,0,0.3426,0.3434,0.3512,0.3481,0.3491,0.353,0.3548,0.3555,0.3568,0.3608,0.3616,0.3588,0.3647,0.3655,0.368,0.3681,0.3689,0.3692,0.3747,0.3747,0.3747,0.3717,0,0,0,0,0,0,0.3423,0.3433,0.3439,0.348,0.3493,0.3531,0.3548,0.3556,0.3573,0.3575,0.3616,0.3623,0.3648,0.3676,0.3683,0.3685,0.3694,0.3747,0.3747,0.3747,0.3718,0.3716,0.3714,0,0,0,0,0,0.3419,0.3428,0.3439,0.3448,0.3501,0.3531,0.3538,0.3566,0.3572,0.3579,0.3604,0.3622,0.368,0.3678,0.3687,0.369,0.3747,0.3747,0.3747,0.3719,0.3716,0.3714,0,0,0,0,0,0,0.3387,0.3434,0.3447,0.347,0.3496,0.3538,0.3546,0.3563,0.3588,0.359,0.3624,0.3633,0.3655,0.3675,0.3672,0.3706,0.3716,0.3717,0.3692,0.3689,0.3687,0.3682,0.3696,0,0,0,0,0,0.3382,0.3403,0.3443,0.3459,0.3472,0.3507,0.3521,0.354,0.3569,0.3581,0.3609,0.3636,0.3661,0.3676,0.3701,0.3721,0.3731,0.3728,0.3725,0.3724,0.3724,0.3736,0.3735,0.3746,0.3746,0.3746,0,0,0.3373,0.3401,0.3412,0.3454,0.3476,0.3497,0.3516,0.3537,0.3553,0.3584,0.3609,0.3631,0.3664,0.3686,0.3698,0.3704,0.3723,0.3723,0.3722,0.3724,0.3736,0.3735,0.3734,0.3746,0.3746,0.3746,0,0,0.3366,0.339,0.3406,0.3428,0.3462,0.3485,0.3489,0.3528,0.3543,0.3569,0.3592,0.3612,0.3653,0.3676,0.3692,0.3694,0.3711,0.3701,0.369,0.3701,0.37,0.37,0.3699,0.3699,0.3702,0.3702,0.3702,0,0.3351,0.3383,0.3412,0.3432,0.3449,0.3478,0.3494,0.3514,0.3554,0.3566,0.3572,0.3624,0.3649,0.3676,0.3676,0.3689,0.3694,0.3696,0.3698,0.3698,0.3697,0.3698,0.3698,0.37,0.37,0.37,0.3701,0,0.3361,0.3383,0.3392,0.3429,0.3448,0.3465,0.3497,0.3512,0.353,0.3552,0.3577,0.3608,0.3639,0.3647,0.3665,0.3677,0.368,0.3691,0.3702,0.3694,0.3695,0.3696,0.3698,0.3699,0.3699,0.3699,0,0,0.3336,0.339,0.3392,0.3409,0.3449,0.3466,0.3485,0.3515,0.3527,0.3554,0.3571,0.3605,0.3616,0.3635,0.3655,0.3665,0.3663,0.3675,0.3677,0.3671,0.3678,0.3668,0.3668,0.3674,0.3675,0.3675,0.3675,0,0.3335,0.337,0.3397,0.3422,0.3442,0.3469,0.3486,0.3512,0.3533,0.3553,0.3577,0.36,0.3613,0.3625,0.3635,0.3661,0.3665,0.3661,0.369,0.3691,0.368,0.3668,0.3659,0.3657,0.3675,0.3675,0.3676,0,0.3339,0.3364,0.3391,0.3427,0.3437,0.3451,0.348,0.3499,0.3529,0.3544,0.3565,0.3585,0.3607,0.3615,0.3645,0.3642,0.3655,0.3669,0.367,0.3673,0.3682,0.3671,0.3658,0.3657,0.3676,0.3676,0.3676,0,0.3317,0.3358,0.3379,0.3393,0.3436,0.3446,0.3464,0.3494,0.351,0.3536,0.3546,0.3574,0.3589,0.3611,0.3638,0.3642,0.3665,0.3676,0.3677,0.3676,0.368,0.368,0.3668,0.369,0.369,0.369,0.369,0,0.3313,0.3328,0.337,0.3383,0.34,0.3431,0.3447,0.3468,0.3495,0.3512,0.3538,0.3553,0.3589,0.3609,0.3631,0.3652,0.3659,0.3671,0.3676,0.3668,0.3667,0.3677,0.3678,0.369,0.369,0.369,0.369,0,0.3292,0.332,0.3345,0.3384,0.3394,0.3405,0.3438,0.3452,0.3474,0.3496,0.3503,0.3538,0.3563,0.3592,0.3627,0.3642,0.366,0.3669,0.365,0.3653,0.3652,0.3652,0.3647,0.3648,0.3669,0.3668,0.3668,0,0.3287,0.3299,0.3339,0.3352,0.337,0.3391,0.3407,0.3438,0.3454,0.3488,0.3497,0.3524,0.3547,0.3585,0.3614,0.3641,0.365,0.3646,0.3654,0.3645,0.3649,0.3648,0.3649,0.3644,0.3644,0.3643,0.3643,0,0.3275,0.3288,0.3311,0.3338,0.3356,0.3379,0.3403,0.3413,0.3448,0.3464,0.349,0.3508,0.3543,0.3569,0.3599,0.3618,0.3636,0.364,0.3642,0.3634,0.3622,0.3627,0.3644,0.364,0.3641,0.3641,0.3641,0.3641,0.3262,0.3273,0.3303,0.3327,0.3348,0.3369,0.3384,0.3407,0.3429,0.346,0.3476,0.3501,0.353,0.3573,0.3591,0.3611,0.3617,0.362,0.362,0.362,0.3618,0.3619,0.3617,0.3617,0.3617,0.3617,0.3617,0,0.325,0.3271,0.3292,0.3325,0.3343,0.3358,0.3386,0.34,0.3422,0.3447,0.3469,0.3498,0.3523,0.3553,0.358,0.359,0.3599,0.3596,0.3596,0.36,0.3611,0.3606,0.3589,0.3589,0.3589,0.3589,0.3589,0.3589,0.3247,0.3267,0.3284,0.3315,0.3335,0.3359,0.3373,0.3393,0.3414,0.3445,0.3466,0.3485,0.3512,0.3542,0.3565,0.3574,0.3582,0.3576,0.3587,0.3597,0.3599,0.3601,0.3597,0.3578,0.3578,0.3575,0.3574,0.3574]},{"header":{"parameterUnit":"m.s-1","parameterCategory":1,"la1":30.2991,"la2":30.254,"lo1":-89.0895,"lo2":-89.0444,"dy":0.0017,"dx":0.0017,"nx":28,"ny":28,"refTime":"2023-10-08T21:00:00:Z","depth":0,"parameterNumber":3,"parameterNumberName":"V-component_of_WINDS"},"data":[0,0,0,0,0,0,0,0,0,0,0,0,0,0,0,0,0,0,0,0,0,0,0,0,0,0,0,0,0,0,0,0,0,0,0,0,0,0,0,0,0,0,0,0,0,0,0,0,0,0,0,0,0,0,0,0,0,0,1.3256,1.3256,0,1.3216,1.3216,1.3215,1.3244,1.3246,1.3247,1.3248,1.3202,1.3199,1.3197,0,0,0,0,0,0,0,0,0,0,0,0,0,1.3351,1.3349,1.3256,1.3256,1.3255,1.3216,1.3216,1.3215,1.3244,1.3246,1.3247,1.3249,1.3203,1.32,1.3197,0,0,0,0,0,0,0,0,0,0,0,0,0,1.331,1.3349,1.3256,1.3265,1.3265,1.3217,1.3216,1.3215,1.3244,1.3246,1.3248,1.3249,1.3203,1.32,1.3196,1.3135,0,0,1.3185,1.3184,0,0,0,0,0,0,0,0,1.3313,1.3307,1.3264,1.3264,1.3265,1.3237,1.3233,1.3188,1.3243,1.3252,1.3248,1.325,1.3212,1.3207,1.3196,1.3133,1.3131,1.3185,1.3183,1.3181,1.318,0,0,0,0,0,0,0,1.3316,1.3309,1.324,1.3264,1.3264,1.3269,1.3265,1.3224,1.3221,1.3251,1.3253,1.3248,1.3212,1.3199,1.3195,1.313,1.3185,1.3182,1.3179,1.3178,1.3014,1.3012,0,0,0,0,0,0,1.3318,1.3311,1.3242,1.3239,1.3294,1.3266,1.3262,1.3244,1.3222,1.322,1.3247,1.325,1.3204,1.3199,1.3193,1.3119,1.3181,1.3178,1.3176,1.3016,1.3013,1.3011,0,0,0,0,0,0,1.332,1.3312,1.3243,1.3276,1.3267,1.3262,1.3242,1.3242,1.3229,1.3219,1.3218,1.3234,1.3206,1.3198,1.3149,1.3118,1.3176,1.3173,1.3018,1.3015,1.3012,1.297,0,0,0,0,0,0,1.3323,1.3312,1.329,1.3275,1.3265,1.3202,1.324,1.324,1.3224,1.3227,1.3207,1.3205,1.3207,1.3155,1.3146,1.3114,1.317,1.3021,1.3017,1.3013,1.2974,1.2966,1.2959,0,0,0,0,0,1.3326,1.3279,1.3289,1.3281,1.3238,1.32,1.3194,1.3199,1.3221,1.3198,1.3191,1.3206,1.3123,1.3149,1.314,1.3106,1.3023,1.3018,1.3013,1.2978,1.2968,1.2959,0,0,0,0,0,0,1.3289,1.3277,1.3288,1.3235,1.3219,1.3205,1.3176,1.3188,1.3163,1.3167,1.3172,1.3167,1.3115,1.3106,1.3136,1.3045,1.3076,1.3069,1.3053,1.3043,1.3035,1.3038,1.3167,0,0,0,0,0,1.3276,1.3247,1.3238,1.3192,1.3183,1.3181,1.3164,1.3169,1.3151,1.3144,1.3133,1.3113,1.3083,1.3063,1.3034,1.2974,1.2968,1.2946,1.2938,1.2932,1.2925,1.289,1.288,1.2995,1.2995,1.2995,0,0,1.3246,1.3236,1.3217,1.3184,1.3172,1.314,1.3174,1.314,1.3116,1.3138,1.3091,1.3083,1.3061,1.3006,1.2981,1.2996,1.2892,1.2925,1.292,1.2917,1.2884,1.2873,1.2864,1.2992,1.2992,1.2993,0,0,1.3175,1.3166,1.3126,1.3113,1.3094,1.3093,1.3084,1.3068,1.3064,1.3017,1.3033,1.3003,1.2951,1.2935,1.292,1.2843,1.2855,1.2833,1.2792,1.2758,1.2749,1.2741,1.2712,1.2702,1.2827,1.2827,1.2827,0,1.314,1.3095,1.3103,1.3068,1.3052,1.3072,1.3031,1.3017,1.2989,1.2977,1.2995,1.293,1.2917,1.2857,1.2838,1.2826,1.2813,1.2835,1.275,1.2742,1.2735,1.2707,1.2696,1.2824,1.2824,1.2825,1.2825,0,1.3051,1.302,1.299,1.2964,1.2945,1.2907,1.2907,1.2887,1.2893,1.289,1.2841,1.2826,1.2795,1.2781,1.2787,1.2722,1.2732,1.275,1.2781,1.2721,1.2695,1.2684,1.282,1.2821,1.2822,1.2823,0,0,1.2955,1.2936,1.2924,1.2912,1.2893,1.2868,1.283,1.2801,1.2782,1.2762,1.2729,1.2684,1.2701,1.2683,1.2687,1.2658,1.2596,1.268,1.2679,1.2663,1.2522,1.2507,1.2495,1.2605,1.2603,1.2601,1.2523,0,1.2883,1.2818,1.2824,1.2762,1.2732,1.2751,1.2717,1.2701,1.2696,1.2669,1.2663,1.2631,1.2656,1.2646,1.2618,1.261,1.2568,1.2616,1.2571,1.257,1.2575,1.2481,1.2466,1.2393,1.2513,1.2511,1.251,0,1.2789,1.2767,1.2703,1.2688,1.2675,1.2645,1.2618,1.2593,1.2573,1.2572,1.2553,1.2562,1.2521,1.2555,1.2498,1.253,1.2513,1.2506,1.2503,1.2498,1.2535,1.2472,1.237,1.2358,1.2494,1.2496,1.2497,0,1.2723,1.2678,1.2633,1.2623,1.2605,1.2583,1.2574,1.2557,1.2539,1.2515,1.2503,1.2474,1.2457,1.2434,1.2433,1.2458,1.2375,1.2409,1.2371,1.237,1.2351,1.2352,1.2243,1.2342,1.2342,1.2343,1.2343,0,1.2641,1.26,1.2604,1.2576,1.253,1.2537,1.2491,1.2484,1.2469,1.2438,1.2453,1.2423,1.2426,1.2396,1.2395,1.2347,1.234,1.2336,1.2336,1.2334,1.2334,1.2321,1.2325,1.234,1.234,1.2341,1.2341,0,1.2559,1.256,1.2512,1.2499,1.2495,1.2462,1.245,1.2422,1.242,1.2381,1.2372,1.2366,1.2332,1.233,1.2289,1.2289,1.223,1.2236,1.2237,1.2237,1.2198,1.2201,1.2076,1.2059,1.2171,1.217,1.2169,0,1.2505,1.2474,1.2459,1.244,1.243,1.2401,1.2382,1.2388,1.2368,1.2344,1.2319,1.2286,1.226,1.2203,1.2194,1.2163,1.2167,1.2126,1.2162,1.2161,1.2165,1.2166,1.2162,1.2118,1.2116,1.2115,1.2115,0,1.2409,1.2411,1.2386,1.236,1.2338,1.2318,1.2298,1.2282,1.2285,1.2262,1.2227,1.2207,1.2166,1.2133,1.2102,1.2091,1.2102,1.2103,1.2092,1.2089,1.209,1.2087,1.2215,1.2106,1.2107,1.2107,1.2108,1.2108,1.2338,1.2312,1.2296,1.2267,1.2253,1.2235,1.2209,1.2203,1.2175,1.2144,1.2148,1.2109,1.209,1.2051,1.2037,1.2005,1.2019,1.2004,1.2,1.1995,1.199,1.2096,1.2,1.2,1.2,1.2,1.2001,0,1.2242,1.2233,1.2206,1.218,1.2156,1.2172,1.2151,1.2129,1.2096,1.2078,1.2052,1.2012,1.1979,1.1968,1.1936,1.1912,1.1917,1.1904,1.1904,1.1901,1.1981,1.1992,1.1901,1.1901,1.1901,1.1901,1.1901,1.1901,1.2188,1.2143,1.2144,1.2091,1.2083,1.2046,1.2033,1.2015,1.2001,1.1956,1.193,1.1924,1.1908,1.1874,1.1844,1.1842,1.1828,1.1813,1.1812,1.1886,1.1896,1.1905,1.1916,1.181,1.181,1.1735,1.1734,1.1734]}]]